Japanese version Home page |
Updated on September 22, 2018 |
Profile
|
Orbital ElementsEpoch 2018 Feb. 11.0 TT = JDT 2458160.5 T 2018 Jan. 29.31348 TT MPCW q 3.7507605 (2000.0) P Q n 0.11768180 Peri. 146.70980 -0.84178661 +0.52705856 a 4.1241062 Node 65.52107 -0.51902435 -0.73087009 e 0.0905277 Incl. 7.36318 -0.14835440 -0.43363370 P 8.38 From 119 observations 2005 Nov. 1-2018 May 19, mean residual 0".6.
|
Magnitudes Graphm1 = 6.5 + 5 log d + 20.0 log r
|
The orbital elements are published on M.P.E.C. 2018-K95.
|